Location: Unspecified
(0.0000°N, 0.0000°E)
Time: 11:13:08
(UTC+00:00)

SO-50 - Visible Passes

Search period start: 14 December 2019 00:00
Search period end: 24 December 2019 00:00
Orbit: 594 x 692 km, 64.6° (Epoch: 13 December)

Date Brightness Start Highest point End Pass type
(mag) Time Alt. Az. Time Alt. Az. Time Alt. Az.
20 Dec ? 19:16:52 10° N 19:21:11 52° ENE 19:25:25 10° SE visible
21 Dec ? 19:41:57 10° NW 19:46:06 41° WSW 19:50:13 10° S visible
22 Dec ? 18:27:02 10° N 18:30:53 29° ENE 18:34:42 10° SE visible
22 Dec ? 20:09:27 10° W 20:11:03 12° WSW 20:12:39 10° SW visible
23 Dec ? 18:51:25 10° NNW 18:55:50 75° WSW 19:00:11 10° SSE visible
